Date,Time,WBGT,Tg
2020/8/1,1:00,21.2,21.4
2020/8/1,2:00,21.5,21.8
2020/8/1,3:00,21.5,21.6
2020/8/1,4:00,21.2,21.3
2020/8/1,5:00,21.0,21.8
2020/8/1,6:00,21.8,24.2
2020/8/1,7:00,22.8,26.9
2020/8/1,8:00,24.0,29.8
2020/8/1,9:00,27.0,41.1
2020/8/1,10:00,29.3,43.9
2020/8/1,11:00,26.4,34.7
2020/8/1,12:00,24.8,33.3
2020/8/1,13:00,28.5,43.7
2020/8/1,14:00,29.1,44.0
2020/8/1,15:00,28.2,42.1
2020/8/1,16:00,27.1,39.3
2020/8/1,17:00,24.4,28.4
2020/8/1,18:00,24.2,28.8
2020/8/1,19:00,22.1,23.0
2020/8/1,20:00,21.2,21.7
2020/8/1,21:00,21.1,21.7
2020/8/1,22:00,20.7,21.3
2020/8/1,23:00,20.6,21.0
2020/8/1,24:00,19.8,20.2
2020/8/2,1:00,20.3,20.6
2020/8/2,2:00,20.5,20.8
2020/8/2,3:00,20.5,20.8
2020/8/2,4:00,20.5,20.9
2020/8/2,5:00,20.6,21.8
2020/8/2,6:00,21.3,24.2
2020/8/2,7:00,22.2,26.9
2020/8/2,8:00,23.2,29.2
2020/8/2,9:00,25.8,40.4
2020/8/2,10:00,26.4,42.3
2020/8/2,11:00,26.8,43.1
2020/8/2,12:00,28.4,44.9
2020/8/2,13:00,28.6,44.8
2020/8/2,14:00,27.9,44.0
2020/8/2,15:00,27.3,42.3
2020/8/2,16:00,26.8,40.3
2020/8/2,17:00,25.1,35.6
2020/8/2,18:00,23.6,28.3
2020/8/2,19:00,21.1,22.4
2020/8/2,20:00,20.6,21.7
2020/8/2,21:00,20.4,21.5
2020/8/2,22:00,19.7,20.8
2020/8/2,23:00,19.7,20.5
2020/8/2,24:00,19.2,19.9
2020/8/3,1:00,19.0,19.6
2020/8/3,2:00,18.6,19.2
2020/8/3,3:00,18.9,19.4
2020/8/3,4:00,18.6,19.1
2020/8/3,5:00,18.8,19.9
2020/8/3,6:00,19.9,22.8
2020/8/3,7:00,20.5,24.9
2020/8/3,8:00,21.8,27.7
2020/8/3,9:00,25.2,39.5
2020/8/3,10:00,25.9,40.6
2020/8/3,11:00,25.0,33.3
2020/8/3,12:00,28.3,43.2
2020/8/3,13:00,29.6,44.6
2020/8/3,14:00,28.8,43.4
2020/8/3,15:00,27.9,41.6
2020/8/3,16:00,25.2,30.6
2020/8/3,17:00,25.7,34.5
2020/8/3,18:00,24.0,26.1
2020/8/3,19:00,22.9,23.7
2020/8/3,20:00,22.7,23.5
2020/8/3,21:00,22.4,23.2
2020/8/3,22:00,22.4,23.1
2020/8/3,23:00,22.5,23.2
2020/8/3,24:00,22.7,23.3
2020/8/4,1:00,22.6,23.2
2020/8/4,2:00,22.9,23.4
2020/8/4,3:00,23.0,23.4
2020/8/4,4:00,23.0,23.3
2020/8/4,5:00,22.7,23.6
2020/8/4,6:00,23.3,25.8
2020/8/4,7:00,23.7,28.3
2020/8/4,8:00,24.2,30.2
2020/8/4,9:00,24.8,32.0
2020/8/4,10:00,25.9,33.9
2020/8/4,11:00,28.2,43.4
2020/8/4,12:00,30.4,45.7
2020/8/4,13:00,31.1,46.6
2020/8/4,14:00,31.2,46.5
2020/8/4,15:00,30.2,45.0
2020/8/4,16:00,29.4,42.2
2020/8/4,17:00,26.8,36.5
2020/8/4,18:00,24.5,27.2
2020/8/4,19:00,23.2,24.9
2020/8/4,20:00,22.9,24.4
2020/8/4,21:00,22.6,23.9
2020/8/4,22:00,22.7,23.6
2020/8/4,23:00,22.5,23.2
2020/8/4,24:00,21.8,22.4
2020/8/5,1:00,21.9,22.4
2020/8/5,2:00,21.5,22.0
2020/8/5,3:00,21.7,22.2
2020/8/5,4:00,21.6,22.1
2020/8/5,5:00,22.0,23.0
2020/8/5,6:00,22.6,25.4
2020/8/5,7:00,25.3,36.3
2020/8/5,8:00,27.4,41.5
2020/8/5,9:00,28.9,44.1
2020/8/5,10:00,29.9,45.7
2020/8/5,11:00,30.5,46.3
2020/8/5,12:00,32.3,48.0
2020/8/5,13:00,32.1,47.6
2020/8/5,14:00,33.2,48.9
2020/8/5,15:00,32.3,47.3
2020/8/5,16:00,27.9,34.0
2020/8/5,17:00,28.6,38.7
2020/8/5,18:00,25.3,28.2
2020/8/5,19:00,24.2,25.6
2020/8/5,20:00,23.8,25.0
2020/8/5,21:00,23.4,24.5
2020/8/5,22:00,23.3,24.5
2020/8/5,23:00,23.3,24.4
2020/8/5,24:00,23.1,24.0
2020/8/6,1:00,23.2,24.0
2020/8/6,2:00,23.3,24.0
2020/8/6,3:00,23.1,23.8
2020/8/6,4:00,22.2,22.7
2020/8/6,5:00,22.5,23.5
2020/8/6,6:00,23.2,26.0
2020/8/6,7:00,24.0,28.7
2020/8/6,8:00,24.7,30.7
2020/8/6,9:00,25.2,32.5
2020/8/6,10:00,28.8,44.1
2020/8/6,11:00,30.5,46.1
2020/8/6,12:00,32.1,47.4
2020/8/6,13:00,32.6,48.3
2020/8/6,14:00,30.8,46.3
2020/8/6,15:00,31.1,45.8
2020/8/6,16:00,29.4,42.2
2020/8/6,17:00,27.5,36.4
2020/8/6,18:00,24.9,27.1
2020/8/6,19:00,24.2,25.3
2020/8/6,20:00,24.2,25.3
2020/8/6,21:00,24.2,25.3
2020/8/6,22:00,24.2,25.0
2020/8/6,23:00,24.0,24.6
2020/8/6,24:00,23.9,24.5
2020/8/7,1:00,23.7,24.3
2020/8/7,2:00,23.4,23.9
2020/8/7,3:00,23.1,23.5
2020/8/7,4:00,23.5,23.9
2020/8/7,5:00,23.3,24.3
2020/8/7,6:00,24.2,27.0
2020/8/7,7:00,25.1,29.6
2020/8/7,8:00,25.4,31.2
2020/8/7,9:00,26.1,32.9
2020/8/7,10:00,27.2,34.9
2020/8/7,11:00,26.2,34.5
2020/8/7,12:00,25.8,33.9
2020/8/7,13:00,24.4,33.3
2020/8/7,14:00,27.0,42.3
2020/8/7,15:00,24.0,31.3
2020/8/7,16:00,23.7,30.3
2020/8/7,17:00,22.3,27.8
2020/8/7,18:00,22.0,25.6
2020/8/7,19:00,21.4,24.1
2020/8/7,20:00,20.7,23.2
2020/8/7,21:00,20.9,23.3
2020/8/7,22:00,21.1,23.2
2020/8/7,23:00,20.1,22.3
2020/8/7,24:00,20.8,22.7
2020/8/8,1:00,20.7,22.6
2020/8/8,2:00,20.2,21.9
2020/8/8,3:00,20.1,21.6
2020/8/8,4:00,20.3,21.7
2020/8/8,5:00,20.5,22.3
2020/8/8,6:00,21.4,24.5
2020/8/8,7:00,22.2,26.6
2020/8/8,8:00,23.0,28.5
2020/8/8,9:00,23.1,29.5
2020/8/8,10:00,23.4,30.6
2020/8/8,11:00,23.7,31.2
2020/8/8,12:00,26.0,40.3
2020/8/8,13:00,24.4,31.6
2020/8/8,14:00,23.6,30.1
2020/8/8,15:00,23.1,28.7
2020/8/8,16:00,22.3,26.6
2020/8/8,17:00,21.8,24.6
2020/8/8,18:00,21.2,22.4
2020/8/8,19:00,20.8,21.2
2020/8/8,20:00,20.8,21.1
2020/8/8,21:00,20.5,20.9
2020/8/8,22:00,20.7,20.9
2020/8/8,23:00,20.5,20.7
2020/8/8,24:00,20.6,20.7
2020/8/9,1:00,20.5,20.7
2020/8/9,2:00,20.6,20.7
2020/8/9,3:00,20.7,20.8
2020/8/9,4:00,20.7,20.8
2020/8/9,5:00,20.7,21.3
2020/8/9,6:00,21.4,23.5
2020/8/9,7:00,22.0,25.7
2020/8/9,8:00,23.0,28.1
2020/8/9,9:00,23.7,29.9
2020/8/9,10:00,23.7,30.6
2020/8/9,11:00,24.5,31.7
2020/8/9,12:00,24.8,32.0
2020/8/9,13:00,25.1,32.1
2020/8/9,14:00,24.4,30.9
2020/8/9,15:00,24.1,29.8
2020/8/9,16:00,26.5,37.6
2020/8/9,17:00,23.9,26.8
2020/8/9,18:00,23.2,24.5
2020/8/9,19:00,22.9,23.3
2020/8/9,20:00,23.2,23.6
2020/8/9,21:00,23.7,24.2
2020/8/9,22:00,24.0,24.6
2020/8/9,23:00,23.5,24.1
2020/8/9,24:00,23.8,24.2
2020/8/10,1:00,23.4,23.8
2020/8/10,2:00,23.2,23.7
2020/8/10,3:00,24.3,24.7
2020/8/10,4:00,23.5,24.0
2020/8/10,5:00,23.4,24.4
2020/8/10,6:00,24.4,26.9
2020/8/10,7:00,27.7,39.2
2020/8/10,8:00,28.3,42.1
2020/8/10,9:00,30.0,45.0
2020/8/10,10:00,31.0,46.2
2020/8/10,11:00,31.5,47.0
2020/8/10,12:00,30.3,46.6
2020/8/10,13:00,31.2,47.8
2020/8/10,14:00,31.3,47.8
2020/8/10,15:00,30.3,45.8
2020/8/10,16:00,29.3,43.0
2020/8/10,17:00,27.6,37.7
2020/8/10,18:00,25.7,30.7
2020/8/10,19:00,24.1,26.3
2020/8/10,20:00,24.4,26.3
2020/8/10,21:00,24.8,26.3
2020/8/10,22:00,24.7,25.7
2020/8/10,23:00,24.4,25.1
2020/8/10,24:00,24.1,24.7
2020/8/11,1:00,23.4,24.1
2020/8/11,2:00,23.2,23.8
2020/8/11,3:00,22.6,23.0
2020/8/11,4:00,22.4,22.8
2020/8/11,5:00,22.8,23.4
2020/8/11,6:00,23.5,25.8
2020/8/11,7:00,23.8,28.2
2020/8/11,8:00,24.2,30.3
2020/8/11,9:00,28.3,43.3
2020/8/11,10:00,30.6,45.9
2020/8/11,11:00,32.0,47.8
2020/8/11,12:00,33.8,49.9
2020/8/11,13:00,35.0,51.1
2020/8/11,14:00,35.3,51.3
2020/8/11,15:00,35.4,50.4
2020/8/11,16:00,31.4,44.0
2020/8/11,17:00,30.5,40.4
2020/8/11,18:00,27.7,33.0
2020/8/11,19:00,26.6,29.0
2020/8/11,20:00,25.5,27.5
2020/8/11,21:00,24.7,26.6
2020/8/11,22:00,24.9,26.9
2020/8/11,23:00,24.2,26.2
2020/8/11,24:00,23.6,25.7
2020/8/12,1:00,23.5,25.9
2020/8/12,2:00,24.1,26.4
2020/8/12,3:00,24.0,26.0
2020/8/12,4:00,23.8,25.6
2020/8/12,5:00,25.1,27.2
2020/8/12,6:00,24.3,27.2
2020/8/12,7:00,25.1,29.1
2020/8/12,8:00,26.1,31.6
2020/8/12,9:00,26.8,33.5
2020/8/12,10:00,27.8,35.3
2020/8/12,11:00,30.9,45.9
2020/8/12,12:00,30.8,46.2
2020/8/12,13:00,32.6,48.3
2020/8/12,14:00,32.1,47.8
2020/8/12,15:00,31.2,46.4
2020/8/12,16:00,30.4,43.0
2020/8/12,17:00,26.8,31.3
2020/8/12,18:00,25.1,27.9
2020/8/12,19:00,24.4,26.1
2020/8/12,20:00,24.4,25.9
2020/8/12,21:00,25.1,26.1
2020/8/12,22:00,24.8,25.7
2020/8/12,23:00,24.6,25.4
2020/8/12,24:00,24.3,25.1
2020/8/13,1:00,24.2,25.2
2020/8/13,2:00,24.3,25.2
2020/8/13,3:00,24.2,25.0
2020/8/13,4:00,23.6,24.2
2020/8/13,5:00,23.7,24.9
2020/8/13,6:00,25.8,33.7
2020/8/13,7:00,27.0,38.8
2020/8/13,8:00,29.0,43.5
2020/8/13,9:00,28.8,45.2
2020/8/13,10:00,29.2,46.2
2020/8/13,11:00,29.6,46.8
2020/8/13,12:00,29.7,47.9
2020/8/13,13:00,28.3,47.1
2020/8/13,14:00,29.2,48.2
2020/8/13,15:00,28.7,47.6
2020/8/13,16:00,28.4,44.7
2020/8/13,17:00,26.6,39.3
2020/8/13,18:00,23.9,31.0
2020/8/13,19:00,22.3,26.2
2020/8/13,20:00,21.2,24.3
2020/8/13,21:00,22.1,24.8
2020/8/13,22:00,21.5,23.9
2020/8/13,23:00,21.8,24.1
2020/8/13,24:00,21.8,24.0
2020/8/14,1:00,20.8,22.5
2020/8/14,2:00,20.9,22.1
2020/8/14,3:00,20.9,22.1
2020/8/14,4:00,20.6,21.5
2020/8/14,5:00,19.9,21.2
2020/8/14,6:00,22.2,29.8
2020/8/14,7:00,24.4,36.0
2020/8/14,8:00,26.6,40.6
2020/8/14,9:00,27.2,42.0
2020/8/14,10:00,28.6,43.9
2020/8/14,11:00,27.0,35.7
2020/8/14,12:00,29.0,44.9
2020/8/14,13:00,29.9,45.0
2020/8/14,14:00,26.9,34.7
2020/8/14,15:00,25.6,32.4
2020/8/14,16:00,25.3,30.8
2020/8/14,17:00,24.9,28.6
2020/8/14,18:00,23.0,24.9
2020/8/14,19:00,21.9,23.3
2020/8/14,20:00,22.7,23.7
2020/8/14,21:00,22.4,23.4
2020/8/14,22:00,22.5,23.4
2020/8/14,23:00,22.8,23.5
2020/8/14,24:00,22.9,23.4
2020/8/15,1:00,22.8,23.3
2020/8/15,2:00,22.7,23.1
2020/8/15,3:00,22.8,23.1
2020/8/15,4:00,23.0,23.3
2020/8/15,5:00,23.3,23.9
2020/8/15,6:00,25.4,32.5
2020/8/15,7:00,25.5,29.7
2020/8/15,8:00,29.3,42.7
2020/8/15,9:00,29.7,44.1
2020/8/15,10:00,30.9,46.3
2020/8/15,11:00,31.1,47.3
2020/8/15,12:00,32.2,48.7
2020/8/15,13:00,32.1,49.0
2020/8/15,14:00,31.2,48.8
2020/8/15,15:00,32.0,46.9
2020/8/15,16:00,31.6,44.5
2020/8/15,17:00,28.6,39.4
2020/8/15,18:00,25.6,31.3
2020/8/15,19:00,24.4,27.6
2020/8/15,20:00,24.4,27.2
2020/8/15,21:00,23.4,26.0
2020/8/15,22:00,24.5,27.1
2020/8/15,23:00,23.5,25.7
2020/8/15,24:00,22.9,25.0
2020/8/16,1:00,23.9,25.8
2020/8/16,2:00,24.2,26.0
2020/8/16,3:00,23.9,25.7
2020/8/16,4:00,23.9,25.4
2020/8/16,5:00,23.2,25.3
2020/8/16,6:00,25.0,32.9
2020/8/16,7:00,25.0,30.1
2020/8/16,8:00,25.4,32.2
2020/8/16,9:00,28.2,43.9
2020/8/16,10:00,29.6,45.4
2020/8/16,11:00,30.8,46.8
2020/8/16,12:00,29.2,38.3
2020/8/16,13:00,31.5,47.7
2020/8/16,14:00,29.8,45.7
2020/8/16,15:00,30.8,46.4
2020/8/16,16:00,28.4,42.5
2020/8/16,17:00,27.4,38.1
2020/8/16,18:00,23.9,27.8
2020/8/16,19:00,23.3,26.0
2020/8/16,20:00,23.8,26.2
2020/8/16,21:00,24.3,26.5
2020/8/16,22:00,23.8,25.9
2020/8/16,23:00,23.6,25.4
2020/8/16,24:00,23.5,25.3
2020/8/17,1:00,23.6,25.1
2020/8/17,2:00,23.1,24.7
2020/8/17,3:00,23.1,24.4
2020/8/17,4:00,23.1,24.3
2020/8/17,5:00,22.9,24.2
2020/8/17,6:00,23.3,26.3
2020/8/17,7:00,24.2,28.6
2020/8/17,8:00,24.9,30.7
2020/8/17,9:00,24.5,31.3
2020/8/17,10:00,25.6,33.3
2020/8/17,11:00,29.2,44.1
2020/8/17,12:00,30.3,45.5
2020/8/17,13:00,28.4,36.4
2020/8/17,14:00,31.4,46.3
2020/8/17,15:00,30.0,44.9
2020/8/17,16:00,25.9,32.3
2020/8/17,17:00,24.9,30.1
2020/8/17,18:00,24.1,27.0
2020/8/17,19:00,24.3,26.4
2020/8/17,20:00,23.9,25.8
2020/8/17,21:00,23.3,24.9
2020/8/17,22:00,23.5,25.0
2020/8/17,23:00,23.2,24.4
2020/8/17,24:00,22.9,24.2
2020/8/18,1:00,22.5,23.8
2020/8/18,2:00,22.4,23.2
2020/8/18,3:00,22.2,22.7
2020/8/18,4:00,22.6,23.1
2020/8/18,5:00,22.5,23.2
2020/8/18,6:00,22.6,25.1
2020/8/18,7:00,23.5,28.0
2020/8/18,8:00,26.4,39.6
2020/8/18,9:00,27.4,42.7
2020/8/18,10:00,28.4,44.1
2020/8/18,11:00,30.1,45.7
2020/8/18,12:00,30.5,46.2
2020/8/18,13:00,30.6,46.3
2020/8/18,14:00,26.5,34.5
2020/8/18,15:00,26.5,33.5
2020/8/18,16:00,26.9,38.8
2020/8/18,17:00,25.8,34.4
2020/8/18,18:00,23.6,27.4
2020/8/18,19:00,21.7,23.4
2020/8/18,20:00,20.9,22.7
2020/8/18,21:00,20.2,22.0
2020/8/18,22:00,21.2,22.8
2020/8/18,23:00,21.2,22.8
2020/8/18,24:00,21.1,22.7
2020/8/19,1:00,21.3,22.6
2020/8/19,2:00,21.0,22.1
2020/8/19,3:00,21.0,21.9
2020/8/19,4:00,21.5,22.2
2020/8/19,5:00,21.4,22.4
2020/8/19,6:00,21.8,24.5
2020/8/19,7:00,24.4,34.8
2020/8/19,8:00,26.0,38.9
2020/8/19,9:00,27.1,42.1
2020/8/19,10:00,28.1,43.7
2020/8/19,11:00,30.0,45.8
2020/8/19,12:00,30.0,45.8
2020/8/19,13:00,31.7,47.4
2020/8/19,14:00,31.0,46.5
2020/8/19,15:00,30.1,44.7
2020/8/19,16:00,29.0,41.5
2020/8/19,17:00,27.4,36.5
2020/8/19,18:00,24.8,28.7
2020/8/19,19:00,23.7,25.2
2020/8/19,20:00,23.6,24.7
2020/8/19,21:00,23.0,24.0
2020/8/19,22:00,23.2,24.0
2020/8/19,23:00,22.8,23.9
2020/8/19,24:00,22.6,23.5
2020/8/20,1:00,21.7,22.7
2020/8/20,2:00,21.5,22.3
2020/8/20,3:00,21.0,21.6
2020/8/20,4:00,20.9,21.5
2020/8/20,5:00,21.7,22.2
2020/8/20,6:00,21.9,24.2
2020/8/20,7:00,22.7,26.8
2020/8/20,8:00,24.7,37.5
2020/8/20,9:00,26.2,41.7
2020/8/20,10:00,29.0,45.4
2020/8/20,11:00,31.0,48.0
2020/8/20,12:00,32.1,49.4
2020/8/20,13:00,34.7,51.6
2020/8/20,14:00,33.5,49.5
2020/8/20,15:00,32.2,47.4
2020/8/20,16:00,30.2,43.3
2020/8/20,17:00,29.0,38.3
2020/8/20,18:00,26.8,30.5
2020/8/20,19:00,24.6,26.3
2020/8/20,20:00,24.3,25.6
2020/8/20,21:00,23.9,25.2
2020/8/20,22:00,23.9,25.1
2020/8/20,23:00,22.9,24.2
2020/8/20,24:00,23.4,24.6
2020/8/21,1:00,23.0,24.1
2020/8/21,2:00,22.2,23.1
2020/8/21,3:00,22.3,23.2
2020/8/21,4:00,21.4,22.5
2020/8/21,5:00,21.2,22.2
2020/8/21,6:00,23.7,30.8
2020/8/21,7:00,25.2,36.4
2020/8/21,8:00,26.3,40.3
2020/8/21,9:00,28.0,43.9
2020/8/21,10:00,28.9,45.3
2020/8/21,11:00,30.5,47.1
2020/8/21,12:00,30.2,47.0
2020/8/21,13:00,30.9,47.9
2020/8/21,14:00,31.7,48.4
2020/8/21,15:00,31.3,47.2
2020/8/21,16:00,30.1,43.6
2020/8/21,17:00,28.0,37.0
2020/8/21,18:00,24.5,27.1
2020/8/21,19:00,23.5,25.1
2020/8/21,20:00,22.8,24.2
2020/8/21,21:00,22.9,24.0
2020/8/21,22:00,23.4,24.5
2020/8/21,23:00,23.3,24.4
2020/8/21,24:00,23.3,24.3
2020/8/22,1:00,22.4,23.3
2020/8/22,2:00,22.7,23.6
2020/8/22,3:00,22.7,23.5
2020/8/22,4:00,22.8,23.6
2020/8/22,5:00,22.9,23.8
2020/8/22,6:00,23.2,25.8
2020/8/22,7:00,25.8,36.2
2020/8/22,8:00,27.1,40.0
2020/8/22,9:00,28.4,43.1
2020/8/22,10:00,29.2,44.0
2020/8/22,11:00,26.9,35.2
2020/8/22,12:00,29.5,44.7
2020/8/22,13:00,27.5,35.5
2020/8/22,14:00,29.3,44.3
2020/8/22,15:00,26.4,33.0
2020/8/22,16:00,26.1,37.6
2020/8/22,17:00,24.0,27.8
2020/8/22,18:00,22.6,24.5
2020/8/22,19:00,22.2,23.4
2020/8/22,20:00,22.2,23.2
2020/8/22,21:00,22.3,23.3
2020/8/22,22:00,22.4,23.3
2020/8/22,23:00,22.1,23.0
2020/8/22,24:00,22.1,22.9
2020/8/23,1:00,21.7,22.4
2020/8/23,2:00,21.1,21.8
2020/8/23,3:00,21.2,21.9
2020/8/23,4:00,21.7,22.4
2020/8/23,5:00,22.0,22.6
2020/8/23,6:00,22.9,25.3
2020/8/23,7:00,24.8,35.1
2020/8/23,8:00,24.4,30.1
2020/8/23,9:00,27.6,41.8
2020/8/23,10:00,25.9,33.6
2020/8/23,11:00,28.0,43.2
2020/8/23,12:00,26.7,35.2
2020/8/23,13:00,29.7,45.1
2020/8/23,14:00,30.1,45.5
2020/8/23,15:00,29.9,43.9
2020/8/23,16:00,30.0,42.4
2020/8/23,17:00,28.6,37.2
2020/8/23,18:00,24.9,26.9
2020/8/23,19:00,23.6,25.1
2020/8/23,20:00,22.9,24.2
2020/8/23,21:00,22.9,24.0
2020/8/23,22:00,22.9,23.9
2020/8/23,23:00,22.9,23.8
2020/8/23,24:00,22.5,23.4
2020/8/24,1:00,22.1,23.1
2020/8/24,2:00,22.2,22.9
2020/8/24,3:00,22.3,22.9
2020/8/24,4:00,21.7,22.3
2020/8/24,5:00,22.0,22.5
2020/8/24,6:00,22.4,24.8
2020/8/24,7:00,23.5,27.9
2020/8/24,8:00,26.8,40.2
2020/8/24,9:00,27.9,42.5
2020/8/24,10:00,28.8,44.4
2020/8/24,11:00,29.8,46.1
2020/8/24,12:00,29.6,46.1
2020/8/24,13:00,29.4,46.4
2020/8/24,14:00,29.0,45.8
2020/8/24,15:00,28.3,43.6
2020/8/24,16:00,27.4,40.9
2020/8/24,17:00,25.7,34.9
2020/8/24,18:00,23.6,27.1
2020/8/24,19:00,22.1,24.0
2020/8/24,20:00,22.6,24.3
2020/8/24,21:00,22.3,23.8
2020/8/24,22:00,22.5,23.8
2020/8/24,23:00,22.3,23.4
2020/8/24,24:00,22.2,23.2
2020/8/25,1:00,22.3,23.2
2020/8/25,2:00,22.3,23.2
2020/8/25,3:00,22.1,23.1
2020/8/25,4:00,22.2,23.1
2020/8/25,5:00,22.2,22.9
2020/8/25,6:00,22.9,25.5
2020/8/25,7:00,23.8,28.4
2020/8/25,8:00,25.1,31.2
2020/8/25,9:00,24.6,32.0
2020/8/25,10:00,25.0,33.3
2020/8/25,11:00,28.1,43.7
2020/8/25,12:00,29.1,45.1
2020/8/25,13:00,29.6,46.2
2020/8/25,14:00,29.3,45.8
2020/8/25,15:00,29.2,44.8
2020/8/25,16:00,28.7,41.5
2020/8/25,17:00,27.2,36.4
2020/8/25,18:00,24.8,28.0
2020/8/25,19:00,23.4,25.0
2020/8/25,20:00,23.2,24.5
2020/8/25,21:00,23.0,24.1
2020/8/25,22:00,22.4,23.3
2020/8/25,23:00,22.4,23.1
2020/8/25,24:00,22.1,22.8
2020/8/26,1:00,22.4,23.0
2020/8/26,2:00,22.4,23.0
2020/8/26,3:00,22.5,23.1
2020/8/26,4:00,22.7,23.2
2020/8/26,5:00,22.9,23.3
2020/8/26,6:00,23.6,25.7
2020/8/26,7:00,24.3,28.4
2020/8/26,8:00,24.6,30.2
2020/8/26,9:00,25.4,32.2
2020/8/26,10:00,26.3,33.9
2020/8/26,11:00,28.8,44.0
2020/8/26,12:00,30.4,45.7
2020/8/26,13:00,30.5,46.1
2020/8/26,14:00,30.3,46.1
2020/8/26,15:00,29.5,44.2
2020/8/26,16:00,29.0,41.1
2020/8/26,17:00,27.4,35.6
2020/8/26,18:00,25.0,27.4
2020/8/26,19:00,24.0,25.2
2020/8/26,20:00,23.4,24.4
2020/8/26,21:00,24.1,25.0
2020/8/26,22:00,24.3,25.2
2020/8/26,23:00,23.6,24.3
2020/8/26,24:00,23.1,23.7
2020/8/27,1:00,22.4,22.9
2020/8/27,2:00,22.1,22.6
2020/8/27,3:00,22.7,23.2
2020/8/27,4:00,22.6,23.0
2020/8/27,5:00,22.5,22.9
2020/8/27,6:00,23.3,25.5
2020/8/27,7:00,26.0,36.1
2020/8/27,8:00,27.4,40.0
2020/8/27,9:00,30.0,44.4
2020/8/27,10:00,30.5,45.8
2020/8/27,11:00,31.6,46.9
2020/8/27,12:00,31.7,47.0
2020/8/27,13:00,31.7,47.1
2020/8/27,14:00,32.0,47.1
2020/8/27,15:00,32.0,46.1
2020/8/27,16:00,31.2,43.1
2020/8/27,17:00,29.3,37.0
2020/8/27,18:00,26.9,28.4
2020/8/27,19:00,26.4,27.4
2020/8/27,20:00,26.5,27.4
2020/8/27,21:00,26.4,27.3
2020/8/27,22:00,26.5,27.3
2020/8/27,23:00,26.5,27.1
2020/8/27,24:00,26.2,26.8
2020/8/28,1:00,25.7,26.2
2020/8/28,2:00,25.4,25.9
2020/8/28,3:00,25.6,26.0
2020/8/28,4:00,25.4,25.8
2020/8/28,5:00,24.9,25.3
2020/8/28,6:00,27.1,33.8
2020/8/28,7:00,29.2,40.1
2020/8/28,8:00,29.7,42.8
2020/8/28,9:00,29.4,36.8
2020/8/28,10:00,31.6,47.2
2020/8/28,11:00,32.7,48.4
2020/8/28,12:00,31.7,47.7
2020/8/28,13:00,32.4,48.2
2020/8/28,14:00,32.0,47.7
2020/8/28,15:00,31.7,46.3
2020/8/28,16:00,30.5,42.8
2020/8/28,17:00,29.3,37.7
2020/8/28,18:00,26.8,29.2
2020/8/28,19:00,26.1,27.4
2020/8/28,20:00,25.7,26.8
2020/8/28,21:00,25.7,26.8
2020/8/28,22:00,25.5,26.5
2020/8/28,23:00,24.7,25.5
2020/8/28,24:00,25.4,26.1
2020/8/29,1:00,24.5,25.1
2020/8/29,2:00,24.8,25.3
2020/8/29,3:00,24.5,24.9
2020/8/29,4:00,24.7,25.1
2020/8/29,5:00,24.9,25.2
2020/8/29,6:00,25.5,27.4
2020/8/29,7:00,25.5,29.5
2020/8/29,8:00,25.6,31.5
2020/8/29,9:00,29.6,44.6
2020/8/29,10:00,30.4,46.7
2020/8/29,11:00,31.4,48.1
2020/8/29,12:00,33.3,48.9
2020/8/29,13:00,32.0,47.4
2020/8/29,14:00,34.2,50.0
2020/8/29,15:00,30.3,36.9
2020/8/29,16:00,27.9,33.1
2020/8/29,17:00,29.1,37.0
2020/8/29,18:00,26.0,28.0
2020/8/29,19:00,25.0,26.7
2020/8/29,20:00,25.9,27.4
2020/8/29,21:00,25.0,26.3
2020/8/29,22:00,25.2,26.0
2020/8/29,23:00,25.4,26.2
2020/8/29,24:00,25.5,26.1
2020/8/30,1:00,24.9,25.7
2020/8/30,2:00,24.3,25.2
2020/8/30,3:00,24.0,24.9
2020/8/30,4:00,24.2,24.9
2020/8/30,5:00,24.0,24.7
2020/8/30,6:00,24.6,26.6
2020/8/30,7:00,24.6,28.6
2020/8/30,8:00,25.1,30.6
2020/8/30,9:00,25.3,31.8
2020/8/30,10:00,28.3,43.0
2020/8/30,11:00,30.0,45.1
2020/8/30,12:00,30.3,45.4
2020/8/30,13:00,30.5,45.3
2020/8/30,14:00,27.9,35.1
2020/8/30,15:00,26.5,32.8
2020/8/30,16:00,26.1,30.7
2020/8/30,17:00,25.5,27.9
2020/8/30,18:00,24.4,25.1
2020/8/30,19:00,23.2,24.0
2020/8/30,20:00,23.1,23.7
2020/8/30,21:00,22.7,23.2
2020/8/30,22:00,21.8,22.4
2020/8/30,23:00,21.7,22.3
2020/8/30,24:00,20.4,21.2
2020/8/31,1:00,19.8,20.6
2020/8/31,2:00,20.0,20.6
2020/8/31,3:00,19.9,20.6
2020/8/31,4:00,19.9,20.5
2020/8/31,5:00,19.5,20.2
2020/8/31,6:00,19.8,22.0
2020/8/31,7:00,19.9,23.7
2020/8/31,8:00,20.1,25.2
2020/8/31,9:00,20.5,26.3
2020/8/31,10:00,20.4,27.1
2020/8/31,11:00,20.9,28.0
2020/8/31,12:00,22.0,29.3
2020/8/31,13:00,23.1,30.2
2020/8/31,14:00,25.3,39.1
2020/8/31,15:00,22.8,28.7
2020/8/31,16:00,21.9,26.5
2020/8/31,17:00,20.9,24.0
2020/8/31,18:00,20.3,21.8
2020/8/31,19:00,19.7,21.1
2020/8/31,20:00,20.0,21.3
2020/8/31,21:00,19.9,21.1
2020/8/31,22:00,20.2,21.3
2020/8/31,23:00,20.1,20.8
2020/8/31,24:00,20.4,20.9
